Weather in Krymka

Russia / Republic of Crimea     45°42′15″N   34°11′27″E
temp.,
°C
wind,
m/s
gust,
m/s
humid.,
%
clouds,
%
prec.,
mm/h
press.,
hPa
HPBL,
m
28 february, sun
sun2800:00+5nnw5876100 0.7 1019675
03:00+5nnw5880100 0.8 1019485
06:00+4nnw5888100 0.1 1020639
09:00+3nw5787100 0.3 1021605
12:00+5nnw577397 0.3 1021893
15:00+4nnw688497 0.6 1022689
18:00+5nnw467099 0.1 1022918
21:00+3wnw368692 0.2 1023163
1 march, mon
mon100:00+2nw258895 0.1 1024251
03:00+1wnw238597 0.1 102457
06:000w239194 0.0 102542
09:00+2nw238197 0.0 1026258
12:00+5n336257 0.0 1027938
15:00+5n335674 0.1 10271092
18:00+4nne346496 0.1 1028521
21:00+3nnw117483 0.1 102935
2 march, tue
tue200:00+3nne356997 0.1 1030223
03:00+1n227694 0.1 103022
06:000nnw228648 0.0 103022
09:00+2wnw237041 0.0 1030222
12:00+5w565421 0.0 10301121
15:00+7w685328 0.0 10271072
18:00+4w71169100 0.0 1025811
21:00+3wsw6128077 0.0 1025518
3 march, wed
wed300:00+4wsw6118155 0.0 1024402
03:00+3wnw489264 0.0 1024231
06:00+2nw23930 0.0 102441
09:00+4wnw46830 0.0 1025273
12:00+8nw57651 0.0 1026859
15:00+10nw685317 0.0 10251505
18:00+8nnw4656100 0.0 1026918
21:00+6n126198 0.1 102736
4 march, thu
thu400:00+4wnw126812 0.0 102822
03:00+3w12746 0.0 102722
06:00+2sw12790 0.0 102722
09:00+4ssw23690 0.0 1027123
12:00+9sw34470 0.0 10261084
15:00+11wsw45400 0.0 10241490
18:00+9w355819 0.0 1023224
21:00+5sw376915 0.0 1022152